Time,TemperatureF,DewpointF,PressureIn,WindDirection,WindDirectionDegrees,WindSpeedMPH,WindSpeedGustMPH,Humidity,HourlyPrecipIn,Conditions,Clouds,dailyrainin,SoftwareType,DateUTC
2013-10-07 00:13:00,46.0,45.0,30.28,SE,133,4.0,11.0,98,0.00,,,0.08,,2013-10-07 04:13:00,
2013-10-07 00:24:00,46.0,45.0,30.28,SSE,148,4.0,9.0,98,0.00,,,0.08,,2013-10-07 04:24:00,
2013-10-07 00:44:00,47.0,46.0,30.28,East,99,4.0,11.0,98,0.00,,,0.08,,2013-10-07 04:44:00,
2013-10-07 00:53:00,47.0,46.0,30.28,SE,141,4.0,8.0,98,0.00,,,0.08,,2013-10-07 04:53:00,
2013-10-07 01:13:00,47.0,46.0,30.28,SE,131,3.0,9.0,98,0.00,,,0.08,,2013-10-07 05:13:00,
2013-10-07 01:23:00,47.0,46.0,30.27,SE,134,5.0,11.0,98,0.00,,,0.08,,2013-10-07 05:23:00,
2013-10-07 01:43:00,46.0,45.0,30.27,SE,142,3.0,9.0,98,0.00,,,0.08,,2013-10-07 05:43:00,
2013-10-07 01:52:00,46.0,45.0,30.26,SE,141,5.0,11.0,98,0.00,,,0.08,,2013-10-07 05:52:00,
2013-10-07 02:12:00,46.0,45.0,30.26,SE,134,5.0,12.0,98,0.00,,,0.08,,2013-10-07 06:12:00,
2013-10-07 02:22:00,46.0,45.0,30.26,SE,137,6.0,11.0,98,0.00,,,0.08,,2013-10-07 06:22:00,
2013-10-07 02:42:00,46.0,45.0,30.25,SE,138,6.0,14.0,98,0.00,,,0.08,,2013-10-07 06:42:00,
2013-10-07 02:53:00,46.0,45.0,30.24,SE,141,7.0,13.0,98,0.00,,,0.08,,2013-10-07 06:53:00,
2013-10-07 03:12:00,46.0,45.0,30.24,SE,143,5.0,12.0,98,0.00,,,0.08,,2013-10-07 07:12:00,
2013-10-07 03:22:00,47.0,46.0,30.23,SSE,160,5.0,13.0,98,0.00,,,0.08,,2013-10-07 07:22:00,
2013-10-07 03:42:00,47.0,46.0,30.23,SSE,148,4.0,11.0,98,0.00,,,0.08,,2013-10-07 07:42:00,
2013-10-07 03:52:00,47.0,46.0,30.23,SE,146,7.0,13.0,98,0.00,,,0.08,,2013-10-07 07:52:00,
2013-10-07 04:12:00,48.0,47.0,30.22,SE,135,4.0,13.0,98,0.00,,,0.08,,2013-10-07 08:12:00,
2013-10-07 04:21:00,48.0,47.0,30.22,SE,129,7.0,12.0,98,0.00,,,0.08,,2013-10-07 08:21:00,
2013-10-07 04:42:00,48.0,47.0,30.21,SE,144,5.0,11.0,98,0.00,,,0.08,,2013-10-07 08:42:00,
2013-10-07 04:52:00,49.0,49.0,30.21,SE,137,4.0,10.0,99,0.00,,,0.08,,2013-10-07 08:52:00,
2013-10-07 05:11:00,49.0,48.0,30.21,SE,143,6.0,11.0,98,0.01,,,0.09,,2013-10-07 09:11:00,
2013-10-07 05:22:00,49.0,49.0,30.21,SE,145,5.0,11.0,99,0.01,,,0.09,,2013-10-07 09:22:00,
2013-10-07 05:43:00,49.0,49.0,30.20,SE,143,5.0,10.0,99,0.01,,,0.09,,2013-10-07 09:43:00,
2013-10-07 05:54:00,50.0,50.0,30.20,SE,141,4.0,11.0,99,0.01,,,0.09,,2013-10-07 09:54:00,
2013-10-07 06:13:00,50.0,50.0,30.20,SSE,147,4.0,10.0,99,0.00,,,0.09,,2013-10-07 10:13:00,
2013-10-07 06:23:00,50.0,50.0,30.20,SE,145,5.0,12.0,99,0.00,,,0.09,,2013-10-07 10:23:00,
2013-10-07 06:43:00,50.0,50.0,30.19,SE,129,5.0,11.0,99,0.00,,,0.09,,2013-10-07 10:43:00,
2013-10-07 06:53:00,50.0,50.0,30.19,SE,131,4.0,10.0,99,0.00,,,0.09,,2013-10-07 10:53:00,
2013-10-07 07:12:00,50.0,50.0,30.19,SE,135,5.0,11.0,99,0.01,,,0.10,,2013-10-07 11:12:00,
2013-10-07 07:22:00,51.0,51.0,30.19,ESE,123,6.0,13.0,99,0.01,,,0.10,,2013-10-07 11:22:00,
2013-10-07 07:42:00,51.0,51.0,30.18,East,95,4.0,11.0,99,0.01,,,0.10,,2013-10-07 11:42:00,
2013-10-07 07:52:00,51.0,51.0,30.18,SE,141,3.0,10.0,99,0.01,,,0.10,,2013-10-07 11:52:00,
2013-10-07 08:12:00,51.0,51.0,30.17,SE,138,4.0,10.0,99,0.00,,,0.10,,2013-10-07 12:12:00,
2013-10-07 08:22:00,52.0,52.0,30.17,SE,144,4.0,11.0,99,0.04,,,0.14,,2013-10-07 12:22:00,
2013-10-07 08:43:00,52.0,52.0,30.17,SE,134,3.0,8.0,99,0.04,,,0.14,,2013-10-07 12:43:00,
2013-10-07 08:52:00,52.0,52.0,30.16,SE,133,3.0,10.0,99,0.04,,,0.14,,2013-10-07 12:52:00,
2013-10-07 09:11:00,53.0,53.0,30.17,SE,144,2.0,7.0,99,0.05,,,0.15,,2013-10-07 13:11:00,
2013-10-07 09:22:00,53.0,53.0,30.17,SE,143,2.0,5.0,99,0.03,,,0.17,,2013-10-07 13:22:00,
2013-10-07 09:42:00,53.0,53.0,30.16,SE,133,1.0,5.0,99,0.10,,,0.24,,2013-10-07 13:42:00,
2013-10-07 09:52:00,53.0,53.0,30.16,SE,133,1.0,5.0,99,0.10,,,0.24,,2013-10-07 13:52:00,
2013-10-07 10:11:00,53.0,53.0,30.16,SE,141,3.0,7.0,99,0.10,,,0.24,,2013-10-07 14:11:00,
2013-10-07 10:22:00,54.0,54.0,30.14,SE,141,4.0,7.0,99,0.09,,,0.24,,2013-10-07 14:22:00,
2013-10-07 10:32:00,54.0,54.0,30.14,SE,141,4.0,7.0,99,0.09,,,0.24,,2013-10-07 14:32:00,
2013-10-07 10:42:00,54.0,54.0,30.14,SE,141,4.0,7.0,99,0.09,,,0.24,,2013-10-07 14:42:00,
2013-10-07 10:52:00,54.0,54.0,30.14,SE,137,2.0,5.0,99,0.01,,,0.25,,2013-10-07 14:52:00,
2013-10-07 11:11:00,54.0,54.0,30.14,SE,145,4.0,7.0,99,0.01,,,0.25,,2013-10-07 15:11:00,
2013-10-07 11:22:00,55.0,55.0,30.12,SSE,160,2.0,7.0,99,0.01,,,0.25,,2013-10-07 15:22:00,
2013-10-07 11:43:00,56.0,56.0,30.12,SE,143,2.0,6.0,99,0.01,,,0.25,,2013-10-07 15:43:00,
2013-10-07 11:53:00,57.0,57.0,30.11,South,181,3.0,8.0,99,0.01,,,0.26,,2013-10-07 15:53:00,
2013-10-07 12:13:00,58.0,58.0,30.10,SSE,165,4.0,12.0,99,0.01,,,0.26,,2013-10-07 16:13:00,
2013-10-07 12:23:00,59.0,59.0,30.10,South,179,4.0,13.0,99,0.01,,,0.26,,2013-10-07 16:23:00,
2013-10-07 12:43:00,59.0,59.0,30.09,SSE,160,6.0,11.0,99,0.01,,,0.26,,2013-10-07 16:43:00,
2013-10-07 12:53:00,60.0,60.0,30.08,SSE,166,4.0,15.0,99,0.01,,,0.27,,2013-10-07 16:53:00,
2013-10-07 13:12:00,60.0,60.0,30.07,SSE,155,5.0,14.0,99,0.01,,,0.27,,2013-10-07 17:12:00,
2013-10-07 13:22:00,61.0,61.0,30.06,SSE,151,8.0,14.0,99,0.01,,,0.27,,2013-10-07 17:22:00,
2013-10-07 13:52:00,62.0,62.0,30.03,South,177,6.0,18.0,99,0.00,,,0.27,,2013-10-07 17:52:00,
2013-10-07 14:12:00,62.0,62.0,30.02,SSE,149,8.0,16.0,99,0.00,,,0.27,,2013-10-07 18:12:00,
2013-10-07 14:22:00,62.0,62.0,30.02,SW,214,11.0,20.0,99,0.00,,,0.27,,2013-10-07 18:22:00,
2013-10-07 14:42:00,62.0,62.0,30.01,SSE,152,8.0,21.0,99,0.01,,,0.28,,2013-10-07 18:42:00,
2013-10-07 14:52:00,62.0,62.0,30.01,SSE,166,9.0,22.0,99,0.01,,,0.28,,2013-10-07 18:52:00,
2013-10-07 15:11:00,62.0,62.0,29.99,SSE,161,11.0,23.0,99,0.02,,,0.28,,2013-10-07 19:11:00,
2013-10-07 15:22:00,62.0,62.0,29.99,South,185,8.0,21.0,99,0.02,,,0.28,,2013-10-07 19:22:00,
2013-10-07 15:42:00,62.0,62.0,29.98,ESE,122,9.0,17.0,99,0.01,,,0.28,,2013-10-07 19:42:00,
2013-10-07 15:52:00,62.0,62.0,29.98,SSE,158,12.0,22.0,99,0.01,,,0.28,,2013-10-07 19:52:00,
2013-10-07 16:12:00,62.0,62.0,29.97,SSE,156,10.0,18.0,99,0.01,,,0.30,,2013-10-07 20:12:00,
2013-10-07 16:22:00,62.0,62.0,29.97,SE,139,10.0,22.0,99,0.01,,,0.30,,2013-10-07 20:22:00,
2013-10-07 16:43:00,62.0,62.0,29.96,SSW,199,9.0,19.0,99,0.06,,,0.35,,2013-10-07 20:43:00,
2013-10-07 16:52:00,63.0,63.0,29.96,SSE,152,9.0,19.0,99,0.07,,,0.36,,2013-10-07 20:52:00,
2013-10-07 17:12:00,63.0,63.0,29.95,SSE,159,9.0,22.0,99,0.07,,,0.37,,2013-10-07 21:12:00,
2013-10-07 17:23:00,63.0,63.0,29.94,South,170,9.0,21.0,99,0.08,,,0.38,,2013-10-07 21:23:00,
2013-10-07 17:43:00,63.0,63.0,29.94,SE,139,9.0,25.0,99,0.04,,,0.39,,2013-10-07 21:43:00,
2013-10-07 17:55:00,63.0,63.0,29.93,South,172,13.0,23.0,99,0.03,,,0.39,,2013-10-07 21:55:00,
2013-10-07 18:13:00,64.0,64.0,29.93,SW,217,13.0,25.0,99,0.02,,,0.39,,2013-10-07 22:13:00,
2013-10-07 18:24:00,64.0,64.0,29.93,South,185,10.0,27.0,99,0.01,,,0.39,,2013-10-07 22:24:00,
2013-10-07 18:43:00,64.0,64.0,29.92,South,178,12.0,27.0,99,0.00,,,0.39,,2013-10-07 22:43:00,
2013-10-07 18:53:00,64.0,64.0,29.93,South,172,13.0,24.0,99,0.00,,,0.39,,2013-10-07 22:53:00,
2013-10-07 19:12:00,64.0,64.0,29.92,SE,137,10.0,22.0,99,0.00,,,0.39,,2013-10-07 23:12:00,
2013-10-07 19:22:00,64.0,64.0,29.91,SSE,163,9.0,22.0,99,0.00,,,0.39,,2013-10-07 23:22:00,
2013-10-07 19:52:00,64.0,64.0,29.91,SSW,193,13.0,24.0,99,0.00,,,0.39,,2013-10-07 23:52:00,
2013-10-07 20:12:00,63.0,63.0,29.90,SE,137,10.0,25.0,99,0.00,,,0.39,,2013-10-08 00:12:00,
2013-10-07 20:22:00,64.0,64.0,29.89,South,179,9.0,24.0,99,0.00,,,0.39,,2013-10-08 00:22:00,
2013-10-07 20:42:00,64.0,64.0,29.90,SE,143,10.0,23.0,99,0.00,,,0.39,,2013-10-08 00:42:00,
2013-10-07 20:52:00,64.0,64.0,29.88,South,188,13.0,28.0,99,0.00,,,0.39,,2013-10-08 00:52:00,
2013-10-07 21:12:00,64.0,64.0,29.89,SSW,212,13.0,26.0,99,0.00,,,0.39,,2013-10-08 01:12:00,
2013-10-07 21:22:00,64.0,64.0,29.88,SE,139,8.0,28.0,99,0.00,,,0.39,,2013-10-08 01:22:00,
2013-10-07 21:42:00,63.0,63.0,29.88,SSW,212,11.0,33.0,99,0.00,,,0.37,,2013-10-08 01:42:00,
2013-10-07 21:52:00,63.0,63.0,29.88,SSW,194,6.0,22.0,100,0.00,,,0.37,,2013-10-08 01:52:00,
2013-10-07 22:11:00,63.0,63.0,29.88,South,181,10.0,24.0,100,0.00,,,0.37,,2013-10-08 02:11:00,
2013-10-07 22:22:00,63.0,63.0,29.86,South,187,8.0,21.0,100,0.00,,,0.37,,2013-10-08 02:22:00,
2013-10-07 22:42:00,63.0,63.0,29.86,SSE,154,12.0,21.0,100,0.00,,,0.31,,2013-10-08 02:42:00,
2013-10-07 22:52:00,64.0,64.0,29.86,South,185,5.0,22.0,99,0.00,,,0.31,,2013-10-08 02:52:00,
2013-10-07 23:12:00,64.0,64.0,29.86,SSW,198,7.0,19.0,100,0.00,,,0.31,,2013-10-08 03:12:00,
2013-10-07 23:22:00,64.0,64.0,29.85,SSE,160,7.0,16.0,100,0.01,,,0.32,,2013-10-08 03:22:00,
2013-10-07 23:55:00,64.0,64.0,29.86,West,266,6.0,14.0,100,0.16,,,0.47,,2013-10-08 03:55:00,